Home   Weather   Nipigon   Past weeks

Flag for Canada Past Weather in Nipigon, Ontario, Canada — Yesterday and Last 2 Weeks

Now
29 °F

Chilly.


Feels Like: 21 °F
Forecast: 26 / 44 °F
Wind: 8 mph from Northwest

Location: Katatota Island

Current Time: Apr 29, 2017 at 11:26:03 am

Latest Report: Apr 29, 2017 at 10:00 am


Visibility: N/A

Pressure: 30.34 "Hg

Humidity: 72%

Dew Point: 21 °F

Location of NipigonLocation

Past Weather in Nipigon — Graph

°F

Nipigon Temperature Yesterday

Maximum temperature yesterday: 33 °F (at 7:00 pm)
Minimum temperature yesterday: 24 °F (at 7:00 am)
Average temperature yesterday: 27 °F

High & Low Weather Summary for the Past Weeks

 TemperatureHumidityPressure
High49 °F (Apr 21, 7:00 pm)100% (Apr 15, 12:00 pm)30.37 "Hg (Apr 15, 12:00 pm)
Low17 °F (Apr 26, 10:00 am)30% (Apr 21, 4:00 pm)29.38 "Hg (Apr 27, 6:00 pm)
Average30 °F86%30.01 "Hg
* Reported Apr 14 9:00 am — Apr 29 9:00 am, Nipigon, Weather by CustomWeather, © 2017

Note: Actual official high and low records may vary slightly from our data, if they occured in-between our weather recording intervals... More about our weather records

Advertising

Nipigon Weather History for the Previous 24 Hours

Scroll right to see more
 ConditionsComfort  
Time TempWeatherWind HumidityBarometerVisibility
9:00 am
Sat, Apr 29
29 °FChilly.12 mph69%30.29 "HgN/A
8:00 am26 °FChilly.9 mph87%30.28 "HgN/A
7:00 am26 °FChilly.10 mph81%30.26 "HgN/A
6:00 am26 °FChilly.10 mph85%30.23 "HgN/A
5:00 am27 °FChilly.15 mph88%30.19 "HgN/A
4:00 am28 °FChilly.16 mph90%30.16 "HgN/A
3:00 am29 °FChilly.16 mph88%30.14 "HgN/A
2:00 am29 °FChilly.10 mph89%30.13 "HgN/A
1:00 am30 °FChilly.14 mph82%30.11 "HgN/A
12:00 am31 °FChilly.24 mph82%30.06 "HgN/A
11:00 pm
Fri, Apr 28
32 °FChilly.16 mph90%30.03 "HgN/A
10:00 pm32 °FChilly.17 mph90%29.99 "HgN/A
9:00 pm32 °FChilly.21 mph83%29.95 "HgN/A
8:00 pm31 °FChilly.20 mph87%29.91 "HgN/A
7:00 pm33 °FChilly.20 mph76%29.89 "HgN/A
6:00 pm30 °FChilly.10 mph90%29.87 "HgN/A
5:00 pm29 °FChilly.14 mph86%29.84 "HgN/A
4:00 pm28 °FChilly.22 mph91%29.81 "HgN/A
3:00 pm29 °FChilly.20 mph80%29.77 "HgN/A
2:00 pm27 °FChilly.17 mph86%29.73 "HgN/A
1:00 pm28 °FChilly.21 mph84%29.70 "HgN/A
12:00 pm26 °FChilly.16 mph98%29.67 "HgN/A
11:00 am27 °FChilly.15 mph83%29.65 "HgN/A
Weather by CustomWeather, © 2017

See weather overviewHow to use our weather pages